Location: Albany
(35.0000°S, 118.0000°E)
Time: 07:43:25
(UTC-04:00)

ADEOS Rocket - Visible Passes

Search period start: 27 May 2015 00:00
Search period end: 06 June 2015 00:00
Orbit: 858 x 1308 km, 98.7° (Epoch: 26 May)

Date Brightness Start Highest point End Pass type
(mag) Time Alt. Az. Time Alt. Az. Time Alt. Az.
27 May 4.7 07:28:30 19° NNE 07:28:30 19° NNE 07:30:11 10° N visible
27 May 5.8 17:29:01 10° ENE 17:34:06 20° ESE 17:39:33 10° SSE visible
28 May 5.2 08:25:54 16° NNW 08:25:54 16° NNW 08:26:59 10° NNW visible
28 May 4.6 18:22:51 10° NE 18:30:08 49° ESE 18:37:37 10° S visible
29 May 4.7 07:36:21 20° N 07:36:21 20° N 07:38:00 10° N visible
29 May 5.7 17:36:12 10° ENE 17:41:48 23° ESE 17:47:43 10° SSE visible
30 May 4.9 06:46:47 11° NE 06:46:47 11° NE 06:47:12 10° NE visible
30 May 5.3 08:33:45 14° NW 08:33:45 14° NW 08:34:29 10° NW visible
30 May 4.4 18:30:27 10° NNE 18:37:56 57° ESE 18:45:32 10° S visible
31 May 4.7 07:44:11 20° N 07:44:11 20° N 07:45:46 10° N visible
31 May 5.5 17:43:28 10° ENE 17:49:31 27° ESE 17:55:48 10° SSE visible
01 Jun 4.8 06:54:37 13° NE 06:54:37 13° NE 06:55:21 10° NE visible
01 Jun 5.5 08:41:35 12° NW 08:41:35 12° NW 08:41:56 10° NW visible
01 Jun 6.1 16:59:26 10° ESE 17:01:26 11° ESE 17:04:00 10° SE visible
02 Jun 4.8 07:52:00 19° N 07:52:00 19° N 07:53:30 10° N visible
02 Jun 5.3 17:50:49 10° ENE 17:57:16 31° ESE 18:03:51 10° S visible
03 Jun 4.8 07:02:25 15° NE 07:02:25 15° NE 07:03:25 10° NNE visible
03 Jun 6.0 17:05:54 10° E 17:09:05 14° ESE 17:12:46 10° SSE visible
04 Jun 4.8 07:59:47 18° NNW 07:59:47 18° NNW 08:01:10 10° NNW visible
04 Jun 5.1 17:58:15 10° NE 18:05:01 35° ESE 18:11:50 10° S visible
05 Jun 4.7 07:10:12 16° NNE 07:10:12 16° NNE 07:11:25 10° NNE visible
05 Jun 5.9 17:12:44 10° E 17:16:46 16° ESE 17:21:11 10° SSE visible
